Temperature
19 18 19 19 19 19 19 19 19 19 19 19 19 19 19 18 18 18 18 18 18 18 18 18 18 18 18 18 18 18 18 18 17 17 17 17 17 17 17 17 17 16 17
19 18 19 19 19 19 19 19 19 19 19 19 19 18 18 18 18 18 18 18 18 18 18 18 18 18 18 18 18 18 18 17 17 17 17 17 17 17 17 16 17 17 17
19 18 19 19 19 19 19 19 19 19 19 19 18 18 18 18 18 18 18 18 18 18 18 18 18 18 18 17 17 17 17 17 17 17 17 17 17 17 17 17 17 17 17
19 18 18 19 19 19 19 19 19 19 19 18 18 18 18 18 18 18 18 18 18 18 18 18 18 18 18 17 17 17 17 17 17 17 17 17 16 17 17 17 17 17 17
19 18 19 19 19 19 19 19 19 19 19 18 18 18 18 18 18 18 18 18 18 18 18 18 18 18 18 17 17 17 17 17 17 17 16 16 17 17 17 17 17 17 17
19 18 19 19 19 19 19 19 19 19 18 18 18 18 18 18 18 18 18 18 18 18 18 18 18 18 18 18 17 17 17 17 17 17 16 16 16 17 17 17 17 17 17
19 18 18 19 19 19 19 19 18 18 18 18 18 18 18 18 18 18 18 18 18 18 18 18 17 17 17 17 17 17 17 17 17 17 16 16 17 17 17 17 17 16 16
19 19 18 19 19 19 19 18 19 18 18 18 18 18 18 18 18 18 18 18 18 18 18 17 17 17 17 17 17 17 17 17 17 17 16 16 17 17 17 17 16 16 16
19 19 18 18 19 19 19 19 18 18 18 18 18 18 18 18 18 18 18 18 18 18 17 17 17 17 17 17 17 17 17 17 17 17 16 16 17 17 17 17 16 16 16
19 19 18 18 18 18 18 18 18 18 18 18 18 18 18 18 18 18 18 18 18 17 17 17 17 17 17 17 17 17 17 17 17 17 16 16 17 17 17 17 16 16 16
19 19 18 18 18 18 18 18 18 18 18 18 18 18 17 17 17 17 17 18 18 17 17 17 17 17 17 17 17 17 17 17 17 17 16 17 17 17 17 17 17 16 16
18 18 18 18 18 18 18 17 17 17 18 17 17 17 17 17 17 17 17 18 18 18 17 17 17 17 17 17 17 17 17 17 17 17 16 17 17 16 16 16 16 16 16
19 18 18 18 18 18 18 17 17 17 17 17 17 17 17 17 17 17 17 17 17 17 17 17 17 17 17 17 17 17 17 17 17 17 17 17 17 16 16 16 16 16 16
19 19 19 18 18 18 18 17 17 17 17 17 17 17 17 17 17 17 17 17 17 17 17 17 17 17 17 17 17 17 17 17 17 17 17 17 17 16 16 16 16 16 16
19 19 19 18 18 18 18 18 17 17 17 17 17 17 17 17 17 17 17 17 17 17 17 17 17 17 17 17 17 17 17 17 17 17 17 17 17 17 16 16 16 16 16
19 19 19 19 19 19 18 18 18 17 17 17 17 17 17 17 17 17 17 17 17 17 17 17 17 17 17 17 17 17 17 17 16 16 16 17 17 17 17 16 16 16 16
20 20 19 19 19 19 19 18 18 17 17 17 17 17 17 17 17 17 17 17 17 17 17 17 17 17 17 17 17 17 17 16 16 16 16 16 16 17 17 16 16 16 16
20 20 20 19 19 19 19 18 18 18 17 17 17 17 17 17 17 17 17 17 17 17 17 17 17 17 17 17 17 17 17 17 16 16 16 16 16 16 16 17 16 16 16
21 20 20 19 19 19 19 19 18 18 18 17 17 17 17 17 17 17 17 17 17 17 17 17 17 17 17 17 17 17 17 17 16 16 16 16 16 16 16 16 17 17 16
21 20 20 20 19 19 18 18 18 18 18 17 17 17 17 17 17 17 17 17 17 17 17 17 17 17 17 17 18 17 17 17 17 17 17 17 16 16 16 16 16 16 17
21 20 20 20 19 19 18 18 18 18 18 18 17 17 17 17 17 17 17 17 17 17 17 17 17 17 17 17 17 17 17 17 17 17 17 17 17 16 16 16 16 16 16
20 20 20 20 19 19 19 18 18 18 17 17 17 17 17 17 17 17 17 17 17 17 17 17 17 17 17 17 17 18 18 18 17 18 17 17 17 17 17 16 16 16 16
20 20 20 20 19 19 18 18 18 17 17 17 17 17 17 17 17 17 17 17 17 17 17 17 17 17 17 17 17 18 18 19 19 18 17 17 17 17 17 17 16 16 16
20 20 20 20 19 19 19 18 18 17 17 17 17 17 17 17 17 17 17 17 17 17 17 17 17 17 17 17 17 17 17 18 18 19 18 18 17 17 17 17 17 16 16
20 20 20 20 19 19 18 18 18 17 17 17 17 17 17 17 17 17 17 17 17 17 17 17 17 17 17 17 17 17 17 17 17 18 18 18 18 18 17 17 17 17 17
20 20 19 19 19 19 18 18 18 17 17 17 17 17 17 17 17 17 17 17 17 17 17 17 17 17 17 17 17 17 17 18 18 18 18 18 18 18 18 17 17 17 17
Wind_Speed
11 14 13 12 13 14 15 15 16 16 15 15 15 15 14 14 13 14 14 14 14 14 15 14 14 14 14 14 14 15 15 15 15 16 17 17 16 16 15 15 16 17 18
15 16 14 13 14 14 15 15 16 16 15 15 15 14 14 13 13 14 14 14 14 14 15 14 14 14 14 14 14 14 14 15 16 16 17 17 16 15 14 13 14 17 17
16 17 15 13 14 14 14 15 15 15 15 14 14 13 13 13 13 13 14 14 14 15 15 14 14 14 15 15 14 15 15 15 15 14 13 15 16 15 15 17 18 18 17
16 16 15 15 14 14 14 14 14 14 14 13 13 13 13 13 13 13 13 14 14 14 14 14 14 15 15 15 15 15 15 14 12 10 11 14 15 15 16 17 17 17 16
15 15 16 15 14 14 14 14 14 14 13 13 13 13 13 13 13 13 14 14 14 14 14 14 14 14 15 15 15 14 14 12 8 7 13 13 14 15 15 16 16 15 15
15 15 17 14 14 13 13 13 13 13 13 12 13 13 13 13 13 13 14 14 14 14 14 14 14 14 14 14 14 13 12 9 7 11 12 13 14 14 15 15 15 14 14
14 15 17 14 14 13 13 13 13 12 12 12 13 13 13 13 13 13 14 14 14 13 13 13 13 13 13 13 13 12 10 4 8 11 11 12 14 14 14 14 14 13 13
14 15 17 14 13 12 12 12 12 12 12 12 12 12 13 13 13 13 13 13 13 12 12 12 12 12 12 12 12 11 8 3 10 11 11 13 13 13 14 13 13 13 13
13 14 15 15 14 12 12 11 11 11 11 11 11 12 12 12 12 12 12 12 12 11 11 11 11 12 12 11 11 10 7 1 8 9 11 11 12 12 13 12 12 12 12
12 12 12 13 13 13 12 11 11 10 11 11 11 11 11 12 12 11 12 12 11 10 10 10 10 11 11 11 10 10 7 4 8 9 9 12 11 11 11 11 11 11 12
11 10 10 11 11 10 11 12 11 10 10 11 10 10 9 9 10 10 12 11 10 10 10 9 10 10 10 11 10 8 6 5 7 7 9 13 10 10 10 11 11 10 10
12 11 9 9 9 9 8 10 8 9 9 7 8 8 6 6 6 9 12 10 9 9 9 8 8 9 7 9 10 8 4 5 6 7 10 11 9 9 10 10 10 10 10
13 11 10 9 9 8 7 7 6 6 7 7 7 6 5 5 6 7 8 9 9 8 7 8 7 4 4 5 4 5 4 4 4 7 10 10 8 8 9 9 9 9 9
12 12 10 10 8 7 6 6 5 5 5 5 6 5 6 4 4 5 4 5 6 5 4 4 4 4 3 4 3 4 4 3 4 6 10 9 7 7 8 8 9 9 9
12 12 11 10 9 8 6 5 6 5 5 5 5 5 4 5 4 5 3 3 3 4 5 4 3 3 3 4 3 4 3 3 4 4 9 9 7 7 7 8 8 8 8
13 12 11 11 10 9 7 6 5 5 5 5 5 6 6 4 4 4 5 4 3 3 3 3 3 3 2 3 3 3 3 3 4 3 6 9 9 7 7 7 8 8 8
13 12 12 12 11 10 9 8 6 6 6 6 5 6 6 5 5 4 4 4 4 4 4 3 3 3 3 3 3 4 4 3 5 4 4 5 9 10 8 7 7 8 8
12 12 12 11 12 11 9 8 7 6 6 6 6 6 6 5 5 5 4 4 4 4 4 3 3 3 2 3 3 3 3 4 5 5 5 5 5 7 11 10 8 8 8
12 12 12 12 12 12 10 9 8 7 7 7 7 7 7 6 6 6 5 3 5 4 4 4 4 4 4 3 4 4 3 4 4 5 4 5 6 5 6 12 11 10 10
11 12 12 12 12 11 9 8 7 7 7 7 7 7 6 6 7 7 6 5 5 4 4 3 3 3 3 4 4 3 4 4 5 4 5 5 6 7 7 7 9 12 13
11 11 12 12 12 10 9 9 8 8 8 7 8 8 8 8 8 7 5 5 5 4 4 5 4 5 5 4 3 4 4 5 5 5 6 5 6 6 6 7 8 6 9
11 11 12 12 12 12 9 8 6 6 6 6 6 7 9 9 9 9 8 7 6 4 5 5 5 5 4 5 4 4 4 4 6 6 6 6 7 7 8 9 8 8 8
11 11 11 12 11 11 10 7 5 4 4 5 6 7 9 10 10 9 9 8 6 7 6 6 6 7 5 5 5 4 3 2 2 5 6 6 6 6 7 7 9 8 9
10 10 10 10 10 10 9 9 9 7 7 7 6 6 7 9 9 9 9 8 7 6 5 7 7 6 7 6 5 5 5 4 3 2 5 6 7 7 7 7 7 8 9
9 9 9 9 9 9 9 9 8 8 6 5 5 6 6 7 8 8 8 8 7 7 7 6 5 7 7 7 6 5 5 5 6 5 4 4 5 6 7 7 7 6 7
9 8 8 8 8 8 9 9 9 8 7 6 6 6 6 5 5 7 8 7 7 7 7 7 6 8 7 7 6 6 5 5 5 5 5 6 5 4 5 5 6 6 7
Wind_Direction
136 126 123 119 114 111 112 113 112 112 112 112 111 109 108 106 103 102 102 101 101 102 102 104 106 106 105 104 105 106 107 107 107 107 106 106 106 109 114 121 121 114 112
135 129 128 124 119 115 113 113 112 112 112 111 111 110 108 106 103 102 103 103 102 102 102 104 106 106 106 107 107 107 107 107 109 109 112 109 106 108 110 107 103 112 116
135 131 135 128 123 118 116 115 114 113 112 112 111 110 109 108 106 105 105 105 104 103 101 101 104 105 105 107 108 107 106 106 111 120 129 115 108 105 104 103 107 115 115
136 136 134 130 127 123 120 118 116 115 114 112 111 110 108 108 107 107 106 104 104 104 103 102 102 104 104 106 107 107 108 110 119 144 118 109 110 108 109 110 113 114 115
134 132 130 136 130 126 122 120 118 117 116 114 111 109 108 107 107 106 105 103 103 103 104 103 103 104 104 104 105 107 108 112 133 121 100 105 106 111 113 114 115 115 117
140 140 133 139 132 128 125 123 122 120 117 113 111 109 109 108 107 105 104 103 102 103 103 104 105 104 105 107 108 110 114 134 150 103 105 110 110 114 115 115 117 118 117
143 138 136 139 134 130 126 124 122 120 116 113 112 109 108 109 108 106 104 104 104 103 103 103 106 104 105 108 109 110 113 135 105 103 107 105 109 115 115 116 119 121 121
144 141 135 139 137 134 130 127 123 120 117 115 113 111 108 108 107 107 106 106 105 104 104 104 106 106 104 106 112 115 121 170 109 104 103 104 111 118 118 119 122 122 122
147 143 146 148 145 139 133 130 127 123 120 116 114 113 113 113 109 109 108 108 108 106 106 105 107 108 109 110 115 116 111 10 107 110 109 109 118 121 121 121 123 124 125
153 151 151 152 149 151 143 137 132 128 125 120 117 118 121 121 118 121 120 111 111 109 106 105 109 112 115 115 117 122 140 193 109 113 109 113 123 127 126 126 125 127 128
160 157 159 154 155 155 147 143 145 138 133 136 131 132 150 140 130 135 107 113 113 111 106 105 114 122 128 125 125 142 176 119 107 101 101 114 131 133 131 132 131 130 131
168 168 164 163 157 159 150 148 155 152 146 151 137 145 139 120 120 113 116 119 118 118 118 112 127 151 168 133 138 176 137 116 119 114 109 123 135 137 138 138 137 137 137
172 172 168 166 162 168 156 160 158 147 149 151 141 145 133 142 141 135 138 141 141 154 145 141 169 148 122 104 126 127 118 122 111 112 116 130 138 141 143 144 143 143 143
176 177 174 168 170 175 167 163 168 166 163 154 150 170 154 150 153 140 148 145 153 150 139 156 143 123 117 120 120 121 133 123 112 108 121 137 147 153 153 153 152 154 154
180 181 177 174 173 175 175 186 180 181 175 163 164 173 177 170 165 149 143 155 162 146 157 169 152 136 147 147 145 137 132 125 124 133 131 145 158 167 168 166 165 164 165
186 183 179 180 180 180 183 191 187 189 187 180 182 178 195 188 168 168 168 173 171 173 161 173 156 166 179 154 157 146 162 146 136 166 146 152 167 177 181 180 176 177 179
189 187 185 185 185 187 192 194 196 194 191 191 183 186 198 199 183 192 182 188 181 172 173 192 179 187 184 177 166 160 166 169 156 179 176 169 169 179 187 191 190 193 196
191 189 190 192 189 190 195 199 202 203 200 198 190 192 203 204 198 208 202 193 184 198 193 189 202 199 190 190 178 186 168 171 180 188 191 193 190 180 182 190 199 205 210
193 191 191 196 195 194 193 197 204 204 207 204 198 202 203 208 208 213 212 197 202 209 211 223 188 210 196 201 189 187 195 191 191 198 199 202 197 203 189 176 195 208 217
192 193 193 194 197 195 194 196 205 208 209 209 208 210 212 211 213 222 215 206 218 211 214 225 214 224 221 219 223 187 207 199 207 202 214 210 207 210 214 197 197 204 211
189 192 196 197 194 193 194 198 203 208 209 210 211 207 211 218 217 221 229 207 221 219 229 219 219 210 220 220 225 222 214 216 215 211 219 222 215 217 222 220 224 221 204
191 192 194 198 196 198 198 200 208 213 214 212 213 206 214 216 217 215 224 223 220 219 230 233 230 234 226 214 237 242 231 206 213 214 211 216 221 216 218 220 222 226 243
193 193 194 196 196 199 199 197 196 201 218 214 212 211 214 215 218 223 221 228 227 231 225 230 229 230 235 227 235 254 268 252 211 194 212 220 221 223 226 222 221 222 231
191 190 194 195 196 195 195 199 200 208 214 218 219 215 214 215 219 221 224 228 229 233 225 232 230 231 237 238 226 241 268 304 283 242 210 205 215 225 235 237 231 223 227
184 185 187 189 191 192 196 202 210 220 226 223 217 216 219 217 221 224 224 226 224 230 227 235 235 238 235 242 243 237 240 243 253 265 265 245 221 220 218 227 235 234 227
176 179 179 182 188 190 196 204 212 219 222 218 218 216 219 217 220 223 225 225 223 224 220 223 228 233 243 248 253 251 247 249 249 253 258 256 249 233 223 224 232 233 231
Height
1544 1544 1544 1545 1547 1548 1549 1550 1550 1551 1552 1553 1553 1554 1554 1555 1555 1556 1556 1557 1557 1558 1559 1559 1560 1561 1561 1562 1563 1563 1564 1565 1566 1566 1567 1568 1568 1569 1570 1571 1573 1573 1574
1545 1545 1545 1547 1549 1550 1551 1552 1553 1553 1554 1555 1555 1556 1557 1557 1558 1558 1559 1559 1560 1560 1561 1562 1562 1563 1564 1564 1565 1566 1567 1567 1568 1569 1569 1570 1571 1572 1573 1574 1575 1575 1576
1546 1547 1547 1549 1551 1552 1553 1554 1555 1556 1556 1557 1558 1558 1559 1559 1560 1560 1561 1562 1562 1563 1563 1564 1565 1565 1566 1567 1567 1568 1569 1570 1570 1571 1572 1574 1574 1574 1575 1576 1576 1577 1578
1548 1549 1550 1551 1553 1554 1555 1556 1557 1558 1558 1559 1560 1560 1561 1562 1562 1563 1563 1564 1565 1565 1566 1566 1567 1567 1568 1569 1570 1570 1571 1572 1573 1574 1577 1577 1577 1577 1578 1578 1579 1580 1581
1550 1551 1551 1553 1555 1556 1557 1558 1559 1560 1561 1561 1562 1563 1563 1564 1565 1565 1566 1566 1567 1567 1568 1569 1569 1570 1570 1571 1572 1573 1574 1575 1575 1578 1578 1579 1579 1579 1580 1581 1582 1583 1584
1551 1553 1553 1555 1557 1558 1559 1560 1561 1562 1563 1563 1564 1565 1565 1566 1567 1567 1568 1569 1569 1570 1570 1571 1572 1572 1573 1573 1574 1575 1576 1577 1579 1581 1581 1581 1581 1581 1582 1583 1584 1585 1586
1554 1556 1555 1557 1558 1560 1561 1562 1563 1564 1565 1565 1566 1567 1568 1568 1569 1570 1570 1571 1572 1572 1573 1574 1574 1575 1575 1576 1576 1577 1578 1579 1583 1583 1583 1583 1583 1584 1585 1586 1586 1587 1588
1556 1558 1557 1558 1560 1562 1563 1564 1565 1566 1567 1567 1568 1569 1570 1570 1571 1572 1572 1573 1574 1575 1575 1576 1577 1577 1577 1578 1578 1579 1580 1581 1584 1585 1585 1585 1585 1586 1587 1587 1588 1589 1590
1557 1559 1559 1560 1561 1563 1564 1566 1567 1568 1568 1569 1570 1571 1572 1572 1573 1574 1574 1575 1576 1577 1578 1578 1579 1579 1580 1580 1581 1581 1582 1583 1587 1587 1587 1587 1587 1588 1589 1589 1590 1591 1592
1558 1560 1561 1563 1564 1565 1566 1567 1568 1569 1570 1571 1572 1572 1573 1574 1575 1576 1576 1577 1578 1579 1580 1581 1581 1582 1582 1583 1583 1583 1584 1586 1589 1589 1589 1588 1588 1589 1590 1591 1592 1593 1593
1559 1561 1563 1565 1566 1567 1569 1568 1570 1570 1571 1572 1573 1574 1575 1577 1578 1579 1578 1579 1580 1581 1582 1583 1583 1584 1584 1585 1585 1585 1586 1589 1590 1590 1590 1589 1590 1591 1591 1592 1593 1594 1595
1558 1561 1563 1565 1566 1568 1570 1570 1572 1573 1573 1574 1575 1576 1577 1578 1580 1580 1579 1580 1581 1582 1583 1584 1585 1586 1587 1588 1587 1588 1590 1590 1591 1591 1590 1590 1591 1592 1592 1593 1594 1595 1596
1558 1561 1563 1565 1566 1569 1570 1571 1573 1574 1574 1575 1576 1577 1578 1579 1581 1582 1582 1582 1583 1584 1586 1586 1587 1589 1589 1589 1590 1591 1591 1592 1593 1593 1591 1591 1592 1593 1593 1594 1595 1596 1597
1558 1560 1563 1564 1566 1568 1570 1572 1573 1574 1575 1576 1576 1578 1579 1580 1581 1583 1583 1584 1585 1586 1587 1588 1589 1589 1590 1590 1591 1591 1592 1593 1594 1594 1592 1592 1593 1593 1594 1595 1596 1597 1597
1557 1559 1561 1563 1565 1567 1568 1570 1572 1574 1575 1576 1576 1577 1579 1581 1582 1583 1583 1584 1586 1587 1588 1588 1590 1590 1590 1591 1591 1592 1593 1593 1594 1595 1593 1593 1593 1594 1595 1595 1596 1597 1598
1555 1558 1560 1562 1564 1566 1568 1569 1571 1573 1574 1576 1577 1578 1579 1581 1582 1583 1583 1584 1586 1587 1588 1589 1590 1590 1591 1591 1592 1592 1593 1593 1593 1594 1595 1594 1594 1594 1595 1596 1596 1597 1598
1554 1557 1559 1561 1563 1564 1567 1568 1570 1572 1574 1575 1576 1577 1578 1580 1581 1582 1584 1585 1586 1587 1587 1588 1589 1590 1590 1591 1592 1592 1593 1593 1593 1593 1595 1595 1594 1594 1595 1595 1596 1597 1597
1553 1555 1557 1560 1561 1563 1565 1567 1569 1571 1573 1574 1576 1577 1577 1579 1580 1581 1583 1585 1585 1587 1587 1588 1589 1590 1590 1591 1592 1592 1592 1592 1593 1593 1594 1594 1595 1596 1595 1595 1595 1596 1596
1551 1554 1556 1558 1559 1562 1563 1565 1567 1569 1571 1573 1574 1576 1577 1578 1579 1581 1582 1584 1584 1586 1587 1588 1589 1590 1590 1590 1591 1591 1592 1592 1592 1593 1594 1594 1594 1595 1595 1594 1594 1595 1595
1550 1552 1554 1555 1557 1559 1562 1563 1565 1567 1569 1571 1572 1574 1576 1577 1578 1580 1581 1582 1584 1585 1586 1587 1587 1588 1589 1589 1591 1591 1591 1591 1592 1592 1592 1593 1594 1594 1595 1595 1594 1594 1594
1548 1549 1551 1553 1555 1557 1559 1561 1563 1565 1567 1569 1570 1572 1573 1575 1577 1578 1580 1581 1582 1584 1585 1586 1587 1587 1588 1589 1590 1590 1590 1590 1590 1590 1591 1591 1592 1592 1593 1593 1593 1594 1593
1545 1547 1549 1551 1553 1555 1557 1559 1561 1563 1565 1567 1568 1569 1571 1573 1574 1576 1577 1579 1581 1582 1583 1584 1585 1586 1587 1588 1588 1588 1588 1589 1588 1589 1589 1589 1590 1590 1591 1591 1591 1591 1592
1543 1545 1547 1549 1551 1553 1555 1557 1559 1560 1562 1564 1565 1567 1568 1570 1572 1574 1575 1577 1578 1580 1581 1581 1583 1584 1585 1586 1587 1588 1587 1586 1586 1587 1587 1587 1588 1588 1589 1589 1589 1589 1589
1541 1543 1545 1547 1549 1550 1552 1554 1556 1558 1559 1561 1563 1564 1566 1567 1569 1571 1573 1574 1576 1577 1578 1579 1581 1582 1583 1584 1585 1585 1586 1585 1585 1585 1585 1585 1585 1585 1586 1587 1588 1587 1587
1540 1541 1543 1545 1546 1548 1550 1552 1554 1555 1557 1559 1560 1561 1562 1564 1566 1568 1569 1571 1572 1574 1576 1577 1578 1579 1580 1582 1583 1583 1583 1583 1584 1584 1583 1584 1584 1584 1584 1584 1584 1585 1585
1539 1540 1542 1543 1545 1546 1548 1550 1551 1553 1554 1556 1557 1558 1560 1561 1563 1565 1566 1568 1569 1571 1572 1573 1575 1576 1577 1578 1579 1580 1581 1581 1581 1581 1581 1581 1581 1581 1581 1581 1582 1582 1582